{"data":{"norad_id":53149,"epoch":"2026-05-24T20:01:18.889824Z","epoch_age_seconds":85813,"freshness":"FRESH","line1":"1 53149U 22083T   26144.83424641  .00000425  00000+0  44749-4 0  9998","line2":"2 53149  53.2158 182.4958 0001015  78.7532 281.3574 15.08842038212851","mean_motion":15.08842038,"eccentricity":0.0001015,"inclination_deg":53.2158,"raan_deg":182.4958,"arg_perigee_deg":78.7532,"mean_anomaly_deg":281.3574,"bstar":4.4749e-5,"rev_number":21285,"period_min":95.437425769814,"perigee_km":539.03499539323,"apogee_km":540.43932384763,"semimajor_km":6917.8741596204,"source":"CELESTRAK","updated_at":"2026-05-25T13:38:17.319082Z"}}